TimeMDT,TemperatureF,Dew PointF,Humidity,Sea Level PressureIn,VisibilityMPH,Wind Direction,Wind SpeedMPH,Gust SpeedMPH,PrecipitationIn,Events,Conditions,WindDirDegrees,DateUTC
12:53 AM,26.1,12.9,58,30.29,10.0,Calm,Calm,-,N/A,,Clear,0,2013-03-20 06:53:00
1:53 AM,25.0,12.0,58,30.25,10.0,Calm,Calm,-,N/A,,Clear,0,2013-03-20 07:53:00
2:53 AM,24.1,12.9,62,30.23,10.0,ESE,3.5,-,N/A,,Clear,120,2013-03-20 08:53:00
3:53 AM,21.9,14.0,72,30.19,10.0,Calm,Calm,-,N/A,,Clear,0,2013-03-20 09:53:00
4:53 AM,23.0,12.9,65,30.16,10.0,Calm,Calm,-,N/A,,Clear,0,2013-03-20 10:53:00
5:53 AM,19.9,12.9,74,30.14,10.0,SSE,4.6,-,N/A,,Clear,150,2013-03-20 11:53:00
6:53 AM,19.9,12.9,74,30.12,10.0,Calm,Calm,-,N/A,,Clear,0,2013-03-20 12:53:00
7:53 AM,21.9,14.0,72,30.09,10.0,ESE,3.5,-,N/A,,Clear,120,2013-03-20 13:53:00
8:53 AM,25.0,17.1,72,30.06,7.0,Calm,Calm,-,N/A,,Clear,0,2013-03-20 14:53:00
9:53 AM,30.0,16.0,56,30.03,10.0,North,3.5,-,N/A,,Clear,360,2013-03-20 15:53:00
10:53 AM,36.0,16.0,44,29.98,10.0,ESE,4.6,-,N/A,,Partly Cloudy,110,2013-03-20 16:53:00
11:53 AM,37.9,16.0,41,29.94,10.0,SSW,3.5,-,N/A,,Overcast,210,2013-03-20 17:53:00
12:53 PM,42.1,15.1,34,29.89,10.0,Calm,Calm,-,N/A,,Overcast,0,2013-03-20 18:53:00
1:53 PM,46.0,14.0,28,29.84,10.0,Calm,Calm,-,N/A,,Overcast,0,2013-03-20 19:53:00
2:53 PM,51.1,10.9,20,29.78,10.0,Calm,Calm,-,N/A,,Overcast,0,2013-03-20 20:53:00
3:53 PM,53.1,10.9,19,29.75,10.0,SSE,6.9,-,N/A,,Scattered Clouds,160,2013-03-20 21:53:00
4:53 PM,54.0,12.0,19,29.72,10.0,Calm,Calm,-,N/A,,Clear,0,2013-03-20 22:53:00
5:53 PM,55.0,12.9,19,29.70,10.0,South,4.6,-,N/A,,Clear,170,2013-03-20 23:53:00
6:53 PM,52.0,15.1,23,29.70,10.0,South,5.8,-,N/A,,Clear,190,2013-03-21 00:53:00
7:53 PM,46.9,15.1,28,29.70,10.0,SSE,4.6,-,N/A,,Clear,160,2013-03-21 01:53:00
8:53 PM,46.0,16.0,30,29.69,10.0,Calm,Calm,-,N/A,,Clear,0,2013-03-21 02:53:00
9:53 PM,39.9,18.0,41,29.69,10.0,ESE,6.9,-,N/A,,Clear,120,2013-03-21 03:53:00
10:53 PM,37.9,18.0,45,29.68,10.0,ESE,4.6,-,N/A,,Clear,110,2013-03-21 04:53:00
11:53 PM,36.0,19.0,50,29.65,10.0,East,5.8,-,N/A,,Clear,100,2013-03-21 05:53:00